User: anonymous   Login
Location: Theydon Bois
(51.6750°N, 0.1050°E)
Time: 19:29:20
(UTC+01:00)
Language:

Gbstr 26 Del rocket - Orbit

View from above orbital plane
View from above orbital plane
View from above satellite
View from above satellite

Ground track
Ground track

The orbit data is extracted from the following two-line orbital elements,

1 25876U 99041E   17292.26403994  .00000130  00000-0  64113-4 0  9992
2 25876  51.7635 187.3387 0531875  29.7151 333.2900 14.04128477932055
Epoch (UTC): 19 October 2017 06:20:13
Eccentricity: 0.0531875
inclination: 51.7635°
perigee height: 493 km
apogee height: 1265 km
right ascension of ascending node: 187.3387°
argument of perigee: 29.7151°
revolutions per day: 14.04128477
mean anomaly at epoch: 333.2900°
orbit number at epoch: 93205

The dashed part of the orbit path shows where the satellite is in the earth's shadow,  

DLR